Cleveland Hopkins International Airport Cleveland US
ICAO: KCLE
IATA: CLE
Category: Large
Scheduled Services: Yes

Elevation: 791 ft
TransAlt. 18000 ft.

Airport Communications:
APP:119.625
ATIS:127.85
CLNC DEL:125.05
DEP:118.15
GND:121.7
RDO:122.2
RAMP CON:129.17
TWR:120.9
UNICOM:122.95

KCLE Zoom In..

If you have problems with the map follow the link
https://www.worldairports.se/pages/airport.php?
ICAO=KCLE

Runways:

(A) RW 06L length 9000 ft width 150 ft
ILS 111.55 / hdg 57

(B) RW 06R length 9956 ft width 150 ft
ILS 111.90 / hdg 57

(C) RW 10 length 6018 ft width 150 ft
---- / hdg 100

(D) RW 24L length 9956 ft width 150 ft
ILS 109.90 / hdg 237

(E) RW 24R length 9000 ft width 150 ft
ILS 111.55 / hdg 237

(F) RW 28 length 6018 ft width 150 ft
ILS 110.70 / hdg 280

Location; KCLE
Day. 14 / Time. 10.51 Zulu
* Altimeter: 30.50
* Temperature: -03° c. -26.6°f.
* Wind from: 280° Speed 08 kn.
Dewpoint: -09° c.
Visibility: 10 Statute Miles.
Clouds: Broken 3100 ft.

KCLE 141051Z 28008KT 10SM BKN031 M03/M09 A3050 RMK AO2 SLP339 T10281094


Wind From 280°
Speed 08 kn.

 
 
jpsmedia.com for Web Design worldairports.se 2018   terms of use